Location: Mercogliano
(40.9167°N, 14.7333°E)
Time: 14:56:04
(UTC+00:00)

X-37B - Pass Details

Date: 02 December 2020
Orbit: 384 x 390 km, 45.0° (Epoch: 02 January)

Event Time Altitude Azimuth Distance (km) Brightness Sun altitude
Rises 18:02:49 0° 286° (WNW) 2,266 5.5 -27.6°
Reaches altitude 10° 18:04:58 10° 295° (WNW) 1,412 4.1 -28.0°
Enters shadow 18:05:24 13° 298° (WNW) 1,247 3.8 -28.1°
